Location: Praha
(50.0830°N, 14.4670°E)
Time: 22:18:38
(UTC+02:00)

ISS - Pass Details

Date: 12 September 2019
Orbit: 411 x 421 km, 51.6° (Epoch: 19 September)

Event Time Altitude Azimuth Distance (km) Brightness Sun altitude
Exits shadow 04:43:37 51° 264° (W) 529 -3.7 -17.3°
Maximum altitude 04:44:17 70° 202° (SSW) 445 -3.9 -17.2°
Drops below altitude 10° 04:47:37 10° 118° (ESE) 1,490 -0.5 -16.8°
Sets 04:49:43 0° 116° (ESE) 2,353 0.6 -16.5°
